Regional Weather Roundup
Issued by NWS Charleston, SC

Current Version | Previous Version | Graphics & Text | Print | Product List | Glossary On
Versions: 1 2 3 4 5 6 7 8 9 10 11 12 13 14 15 16 17 18 19 20 21 22 23 24 25 26 27 28 29 30 31 32 33 34 35 36 37 38 39 40 41 42 43 44 45 46 47 48 49 50
000 ASUS42 KCHS 220527 RWRCHS Regional Weather Roundup National Weather Service Charleston SC 1200 AM EST THU FEB 22 2018 NOTE: "fair" indicates few or no clouds below 12,000 feet with no significant weather and/or obstructions to visibility. Not all stations are quality controlled. Use data with caution, especially dewpoint observations. SCZ027-030-031-034>040-042>050-220600- ...Southeast South Carolina... CITY SKY/WX TMP DP RH WIND PRES REMARKS N Charleston FAIR 67 65 93 S9 30.43F Waterfront Prk N/A 65 65 100 SE7 30.30S Mount Pleasant FAIR 66 66 100 SE3 30.44F Johns Island FAIR 68 68 100 SE6 30.44F Pinopolis N/A 66 66 100 CALM 30.34F Moncks Corner FAIR 63 63 100 CALM 30.44R FOG Summerville FAIR 63 63 100 CALM 30.44S Beaufort MCAS FAIR 69 68 96 S5 30.43S Beaufort Arpt FAIR 66 64 94 SE5 30.42F Hilton Head Is FAIR 68 66 94 VRB3 30.44S Walterboro N/A 63 63 100 SE3 30.43F FOG Allendale CLOUDY 68 68 100 S5 30.41S ...Southern Midlands and Pee Dee... CITY SKY/WX TMP DP RH WIND PRES REMARKS Georgetown FAIR 64 64 100 S3 30.45S Kingstree FOG 61 61 100 CALM 30.44S VSB 1/4 Orangeburg FAIR 66 64 93 CALM 30.43R Barnwell N/A 70 70 100 S7 30.42S Aiken MOCLDY 64 64 100 S7 30.45S Manning FAIR 64 37 36 MISG 30.44R Columbia MOCLDY 69 67 93 S6 30.41R Sumter FOG 63 63 100 S3 30.41S VSB 7/8 Florence FAIR 64 64 100 SE3 30.44S FOG Myrtle Beach FAIR 65 63 93 S9 30.45F N Myrtle Beach FAIR 63 63 100 S3 30.44F FOG $$ GAZ063-065-086>088-099>101-113>116-118-119-134>141-150-220600- ...Southeast Georgia... CITY SKY/WX TMP DP RH WIND PRES REMARKS Savannah Arpt FAIR 68 66 93 SE6 30.43S Hunter AAF FAIR 67 65 93 SE7 30.40F Fort Stewart FAIR 66 65 97 CALM 30.40F Statesboro CLOUDY 67 32 27 SE3 30.42S HAZE Sylvania FAIR 67 67 100 CALM 30.42F FOG Claxton FAIR 68 67 97 CALM 30.41F ...CSRA, Central and far Southeast Georgia... CITY SKY/WX TMP DP RH WIND PRES REMARKS Thomson FAIR 69 64 84 SW6 30.45S Augusta-Bush MOCLDY 69 66 90 S7 30.40S Augusta-Daniel FAIR 70 65 84 SE7 30.41S Swainsboro FAIR 68 66 94 S6 30.42S Vidalia FAIR 68 68 100 CALM 30.41S Eastman FAIR 70 59 68 S6 30.43R Hazlehurst FAIR 69 68 95 S5 30.40R Alma MOCLDY 69 66 90 SE7 30.40S Waycross FAIR 69 66 90 SE8 30.41S Jesup FOG 66 64 94 CALM 30.42S VSB 3/4 Baxley MOCLDY 66 66 100 S5 30.40S Brunswick FAIR 68 64 88 SE8 30.43S Saint Simons CLOUDY 68 67 96 SE9 30.42S $$ SCZ027-028-034-036>038-045-046-048>050-GAZ119-141-220600- ...Lake and Supplemental Coastal Observations... STATION/POSITION TIME TEMP WIND PRES WAVE SWELL AIR SEA DIR/SP/G HT/PER HT/PER/DIR (UTC) (F) (DEG/KT/KT) (MB) (FT/S) (FT/S/D) Winyah Bay 0445 66 170/ 6 1031.0S Lake Murray 0420 66 150/ 6/ 8 1029.1 ACE Basin NERRS 0445 66 140/ 2 1030.0F Fort Pulaski 0500 67 61 150/ 5/ 8 1030.7 Sapelo Island 0500 69 140/ 8 1030.0 $$ ANZ835-935-AMZ111-154-330-350-352-354-370-450-454-472-220600- ...C-MAN and Buoy Observations... STATION/POSITION TIME TEMP WIND PRES WAVE SWELL AIR SEA DIR/SP/G HT/PER HT/PER/DIR (UTC) (F) (DEG/KT/KT) (MB) (FT/S) (FT/S/D) Buoy 41004 0510 71 170/ 6/ 8 1031.6 Buoy 41008 0450 63 58 130/ 6/ 6 1030.2R 3/ 7 3/140/ 7 Folly Beach CMAN 0400 64 130/ 7/ 7 1031.7R Capers Nearshore 0408 58 59 140/ 4/ 8 1030.8R Fripp Nearshore 0408 60 61 140/ 6/ 8 1030.2R STATION/POSITION TIME TEMP WIND PRES WAVE SWELL AIR SEA DIR/SP/G HT/PER HT/PER/DIR (UTC) (F) (DEG/KT/KT) (MB) (FT/S) (FT/S/D) 5E St. Marys GA 0500 64 N/A 3/ 8 2/ 80/13 Frying Pan Buoy 0510 72 180/ 12/ 16 1031.5 Buoy 41025 0510 72 200/ 16/ 19 1032.2 Cape Lookout NC 0400 210/ 10/ 12 1032.0R Buoy 41002 0450 72 74 120/ 12/ 16 1032.8S 5/ 8 5/120/ 8 Buoy 41010 NOT AVBL St Augustine FL 0400 68 67 130/ 8/ 9 1030.1R $$

USA.gov is the U.S. government's official web portal to all federal, state and local government web resources and services.